Weather History for MRPV - October, 2012

Change the Weather History Date:

Monday, October 8, 2012

  Actual Average Record
Temperature  
Mean Temperature 70 °F -  
Max Temperature 76 °F 77 °F 84 °F (1999)
Min Temperature 64 °F 66 °F 64 °F (2005)
Cooling Degree Days 5    
Growing Degree Days 20 (Base 50)    
Moisture  
Dew Point 66 °F    
Average Humidity 87    
Maximum Humidity 100    
Minimum Humidity 62    
Precipitation  
Precipitation 0.00 in - - ()
Sea Level Pressure  
Sea Level Pressure 29.98 in    
Wind  
Wind Speed 4 mph ()    
Max Wind Speed 12 mph    
Max Gust Speed -    
Visibility 4.5 miles    
Events Fog , Rain    
Averages and records for this station are not official NWS values.
T = Trace of Precipitation, MM = Missing Value Source: Averaged Metar Reports

Daily Weather History Graph

Daily Weather History Graph

Search for Another Location

Airport or City:

Trip Planner

Search our weather history database for the weather conditions in past years. The results will help you decide how hot, cold, wet, or windy it might be!

Date:

Astronomy

Oct. 08, 2012 Rise Set
Actual Time 5:24 AM CST 5:22 PM CST
Civil Twilight 5:03 AM CST 5:43 PM CST
Nautical Twilight 4:39 AM CST 6:08 PM CST
Astronomical Twilight 4:14 AM CST 6:32 PM CST
Moon No Moon Rise 12:05 PM CST (10/8)
Length of Visible Light 12h 40m
Length of Day
11h 57m
Last Quarter, 46% of the Moon is Illuminated
Oct 8
Last Quarter
Oct 15
New
Oct 21
First Quarter
Oct 29
Full
Nov 6
Last Quarter

Hourly Weather History & Observations

Time (CST) Temp. Dew Point Humidity Pressure Visibility Wind Dir Wind Speed Gust Speed Precip Events Conditions
6:00 AM 66 °F 66 °F 100%  in 6 mi East 3.5 mph - -   Scattered Clouds
6:00 AM 66.2 °F 66.2 °F 100% 29.97 in 6.2 mi East 3.5 mph - N/A   Mostly Cloudy
6:27 AM 69.8 °F 66.2 °F 88% 29.97 in - WNW 2.3 mph - N/A   Clear
7:00 AM 68.0 °F 66.2 °F 94% 30.00 in - West 6.9 mph - N/A   Clear
8:00 AM 69.8 °F 64.4 °F 83% 30.01 in 6.2 mi WNW 3.5 mph - N/A   Mostly Cloudy
9:00 AM 72 °F 64 °F 69%  in 6 mi West 3.5 mph - -   Haze
9:00 AM 71.6 °F 64.4 °F 78% 30.01 in 6.2 mi West 3.5 mph - N/A   Mostly Cloudy
10:00 AM 75.2 °F 64.4 °F 69% 30.02 in 6.2 mi WNW 5.8 mph - N/A   Mostly Cloudy
11:00 AM 77.0 °F 66.2 °F 69% 29.99 in 5.0 mi West 6.9 mph - N/A   Mostly Cloudy
12:00 PM 76 °F 65 °F 62%  in 6 mi WSW 6.9 mph - - Rain Light Rain
12:00 PM 75.2 °F 66.2 °F 73% 29.97 in 6.2 mi WSW 6.9 mph - N/A Rain Rain
12:25 PM 75.2 °F 66.2 °F 73% 29.97 in 3.1 mi West 11.5 mph - N/A Rain Rain
12:34 PM 73.4 °F 68.0 °F 83% 29.97 in 2.5 mi WNW 11.5 mph - N/A Rain Rain
1:00 PM 69.8 °F 69.8 °F 100% 29.97 in 2.2 mi WNW 9.2 mph - N/A Rain Rain
1:34 PM 73.4 °F 68.0 °F 83% 29.97 in 2.5 mi WNW 11.5 mph - N/A Rain Rain
2:00 PM 68.0 °F 68.0 °F 100% 29.96 in 2.5 mi West 5.8 mph - N/A Rain Rain
3:00 PM 68.0 °F 66.2 °F 94% 29.96 in 3.1 mi NW 3.5 mph - N/A Rain Light Rain
3:20 PM 68.0 °F 66.2 °F 94% 29.96 in 2.5 mi WNW 1.2 mph - N/A Rain Rain
4:00 PM 66.2 °F 66.2 °F 100% 29.97 in 1.2 mi East 2.3 mph - N/A Rain Light Rain
4:20 PM 66.2 °F 66.2 °F 100% 29.97 in 3.1 mi Calm Calm - N/A Rain Light Rain
5:00 PM 68.0 °F 66.2 °F 94% 29.97 in 5.6 mi NE 2.3 mph - N/A Fog , Rain Light Rain
6:00 PM 67 °F 67 °F 100%  in 6 mi NE 1.2 mph - - Rain Light Rain
6:00 PM 68.0 °F 68.0 °F 100% 29.99 in 5.6 mi NE 1.2 mph - N/A Fog , Rain Light Rain